FW8690 Weather Reports


time (UTC)temp
C
wind
direction
speed
KPH
gust
KPH
rain 1hr
cm
rain 24hr
cm
rain mn
cm
humidity
%
barometer
mb
20260510180004 13 309 0.0 1.6 0.00 0.00 0.00 65 1014.2
20260510175503 13 0 0.0 0.0 0.00 0.00 0.00 64 1014.1
20260510175003 13 0 0.0 0.0 0.00 0.00 0.00 64 1014.1
20260510174503 13 0 0.0 0.0 0.00 0.00 0.00 65 1014.4
20260510174004 12 0 0.0 0.0 0.00 0.00 0.00 66 1014.3
20260510173504 12 0 0.0 0.0 0.00 0.00 0.00 65 1014.4
20260510173004 12 0 0.0 0.0 0.00 0.00 0.00 66 1014.5
20260510172504 12 0 0.0 0.0 0.00 0.00 0.00 66 1014.5
20260510172004 12 309 0.0 1.6 0.00 0.00 0.00 65 1014.7
20260510171503 13 309 0.0 1.6 0.00 0.00 0.00 64 1014.7
20260510171003 13 0 0.0 0.0 0.00 0.00 0.00 64 1014.5
20260510170503 13 0 0.0 0.0 0.00 0.00 0.00 64 1014.6
20260510170003 13 0 0.0 0.0 0.00 0.00 0.00 65 1014.7
20260510165504 13 0 0.0 0.0 0.00 0.00 0.00 65 1014.7
20260510165004 13 0 0.0 0.0 0.00 0.00 0.00 64 1014.8
20260510164504 13 309 0.0 1.6 0.00 0.00 0.00 65 1014.8
20260510164214 13 309 0.0 1.6 0.00 0.00 0.00 65 1014.7
20260510163504 13 309 0.0 1.6 0.00 0.00 0.00 66 1014.9
20260510163003 13 309 0.0 1.6 0.00 0.00 0.00 66 1014.9
20260510162503 13 308 0.0 1.6 0.00 0.00 0.00 67 1015.1
20260510162003 13 308 0.0 1.6 0.00 0.00 0.00 66 1015.0
20260510161503 13 309 0.0 1.6 0.00 0.00 0.00 68 1015.1
20260510161214 13 309 0.0 1.6 0.00 0.00 0.00 68 1015.0
20260510160504 13 0 0.0 0.0 0.00 0.00 0.00 68 1015.3
20260510160004 13 308 0.0 1.6 0.00 0.00 0.00 68 1015.3
20260510155504 13 308 0.0 1.6 0.00 0.00 0.00 68 1015.2
20260510155003 13 0 0.0 0.0 0.00 0.00 0.00 68 1015.3
20260510154504 13 0 0.0 0.0 0.00 0.00 0.00 69 1015.3
20260510154003 13 308 0.0 3.2 0.00 0.00 0.00 68 1015.5
20260510153503 13 308 0.0 3.2 0.00 0.00 0.00 68 1015.5
20260510153004 13 308 0.0 0.0 0.00 0.00 0.00 67 1015.4
20260510152504 13 0 0.0 0.0 0.00 0.00 0.00 67 1015.4
20260510152214 13 0 0.0 0.0 0.00 0.00 0.00 68 1015.3
20260510151715 13 308 0.0 0.0 0.00 0.00 0.00 67 1015.3
20260510151004 13 0 0.0 0.0 0.00 0.00 0.00 67 1015.5
20260510150715 13 309 0.0 1.6 0.00 0.00 0.00 66 1015.6
20260510150004 13 309 0.0 1.6 0.00 0.00 0.00 68 1015.6
20260510145503 13 0 0.0 0.0 0.00 0.00 0.00 67 1015.6
20260510145214 13 0 0.0 0.0 0.00 0.00 0.00 67 1015.7
20260510144714 13 0 0.0 0.0 0.00 0.00 0.00 67 1015.6
20260510144004 13 0 0.0 0.0 0.00 0.00 0.00 68 1015.8
20260510143504 13 308 0.0 1.6 0.00 0.00 0.00 67 1015.8
20260510143004 13 308 0.0 1.6 0.00 0.00 0.00 67 1015.7
20260510142712 13 308 0.0 1.6 0.00 0.00 0.00 66 1015.7
20260510142003 13 309 0.0 1.6 0.00 0.00 0.00 66 1015.7
20260510141503 14 0 0.0 0.0 0.00 0.00 0.00 65 1015.8
20260510141003 14 308 0.0 1.6 0.00 0.00 0.00 65 1016.0
20260510140714 14 308 0.0 1.6 0.00 0.00 0.00 64 1015.9
20260510140004 14 0 0.0 0.0 0.00 0.00 0.00 65 1015.9
20260510135504 14 0 0.0 0.0 0.00 0.00 0.00 64 1015.9
20260510135213 14 308 0.0 1.6 0.00 0.00 0.00 64 1016.0
20260510134714 15 308 0.0 1.6 0.00 0.00 0.00 63 1016.0
20260510134004 15 0 0.0 0.0 0.00 0.00 0.00 63 1015.9
20260510133503 15 0 0.0 0.0 0.00 0.00 0.00 63 1015.9
20260510133003 15 309 0.0 1.6 0.00 0.00 0.00 62 1016.1
20260510132503 15 309 0.0 1.6 0.00 0.00 0.00 62 1016.0
20260510132003 15 309 0.0 1.6 0.00 0.00 0.00 61 1016.0
20260510131504 15 0 0.0 0.0 0.00 0.00 0.00 61 1016.0
20260510131213 15 0 0.0 0.0 0.00 0.00 0.00 62 1016.0
20260510130504 15 309 0.0 1.6 0.00 0.00 0.00 60 1015.9
20260510130003 16 309 0.0 1.6 0.00 0.00 0.00 61 1015.9
20260510125503 15 309 0.0 1.6 0.00 0.00 0.00 62 1015.9
20260510125003 16 0 0.0 0.0 0.00 0.00 0.00 63 1016.0
20260510124714 16 0 0.0 0.0 0.00 0.00 0.00 62 1015.9
20260510124003 16 308 0.0 0.0 0.00 0.00 0.00 62 1016.0
20260510123503 15 308 0.0 1.6 0.00 0.00 0.00 63 1016.0
20260510123003 16 308 0.0 1.6 0.00 0.00 0.00 61 1016.2
20260510122714 16 0 0.0 0.0 0.00 0.00 0.00 61 1016.1
20260510122003 16 308 0.0 1.6 0.00 0.00 0.00 59 1016.3
20260510121503 15 308 0.0 1.6 0.00 0.00 0.00 61 1016.4
20260510121003 15 0 0.0 0.0 0.00 0.00 0.00 60 1016.4
20260510120714 16 0 0.0 0.0 0.00 0.00 0.00 60 1016.3
20260510120003 15 308 0.0 1.6 0.00 0.00 0.00 62 1016.5
20260510115503 15 0 0.0 0.0 0.00 0.00 0.00 62 1016.5
20260510115003 15 0 0.0 0.0 0.00 0.00 0.00 61 1016.6
20260510114503 15 0 0.0 0.0 0.00 0.00 0.00 60 1016.6
20260510114003 16 309 0.0 0.0 0.00 0.00 0.00 61 1016.6
20260510113503 16 309 0.0 0.0 0.00 0.00 0.00 62 1016.6
20260510113214 16 309 0.0 0.0 0.00 0.00 0.00 62 1016.7
20260510112713 15 0 0.0 0.0 0.00 0.00 0.00 63 1016.8
20260510112214 15 0 0.0 0.0 0.00 0.00 0.00 65 1016.9
20260510111503 14 308 0.0 1.6 0.00 0.00 0.00 64 1017.0
20260510111003 15 0 0.0 0.0 0.00 0.00 0.00 65 1016.9
20260510110504 15 309 0.0 1.6 0.00 0.00 0.00 65 1016.9
20260510110004 15 309 0.0 1.6 0.00 0.00 0.00 64 1016.9
20260510105504 15 0 0.0 0.0 0.00 0.00 0.00 64 1016.9
20260510105004 15 308 0.0 1.6 0.00 0.00 0.00 64 1017.0
20260510104504 14 308 0.0 1.6 0.00 0.00 0.00 64 1017.0
20260510104004 14 0 0.0 0.0 0.00 0.00 0.00 65 1016.9
20260510103713 14 308 0.0 1.6 0.00 0.00 0.00 64 1017.1
20260510103003 15 308 0.0 1.6 0.00 0.00 0.00 64 1017.0
20260510102503 15 308 0.0 1.6 0.00 0.00 0.00 64 1017.1
20260510102004 15 308 0.0 1.6 0.00 0.00 0.00 65 1017.1
20260510101504 15 308 0.0 1.6 0.00 0.00 0.00 65 1017.2
20260510101004 15 308 0.0 1.6 0.00 0.00 0.00 65 1017.3
20260510100504 15 308 0.0 1.6 0.00 0.00 0.00 64 1017.2
20260510100004 15 308 0.0 1.6 0.00 0.00 0.00 64 1017.3
20260510095504 15 0 0.0 0.0 0.00 0.00 0.00 65 1017.4
20260510095004 15 0 0.0 0.0 0.00 0.00 0.00 66 1017.2
20260510094503 14 308 0.0 1.6 0.00 0.00 0.00 68 1017.2
20260510094003 13 308 0.0 1.6 0.00 0.00 0.00 69 1017.1
20260510093504 13 0 0.0 0.0 0.00 0.00 0.00 68 1017.2
20260510093004 13 309 0.0 1.6 0.00 0.00 0.00 67 1017.2
20260510092504 13 309 0.0 1.6 0.00 0.00 0.00 68 1017.2
20260510092004 13 0 0.0 0.0 0.00 0.00 0.00 67 1017.2
20260510091715 14 0 0.0 0.0 0.00 0.00 0.00 66 1017.4
20260510091004 14 308 0.0 1.6 0.00 0.00 0.00 68 1017.5
20260510090504 13 308 0.0 1.6 0.00 0.00 0.00 68 1017.4
20260510090213 13 0 0.0 0.0 0.00 0.00 0.00 68 1017.5
20260510085504 13 308 0.0 1.6 0.00 0.00 0.00 68 1017.5
20260510085004 13 308 0.0 1.6 0.00 0.00 0.00 69 1017.6
20260510084504 13 0 0.0 0.0 0.00 0.00 0.00 70 1017.6
20260510084004 13 309 0.0 1.6 0.00 0.00 0.00 71 1017.6
20260510083714 13 309 0.0 1.6 0.00 0.00 0.00 71 1017.6
20260510083004 12 0 0.0 0.0 0.00 0.00 0.00 71 1017.5
20260510082504 12 308 0.0 0.0 0.00 0.00 0.00 72 1017.7
20260510082003 12 308 0.0 0.0 0.00 0.00 0.00 71 1017.6
20260510081503 13 0 0.0 0.0 0.00 0.00 0.00 70 1017.7
20260510081003 13 308 0.0 1.6 0.00 0.00 0.00 71 1017.8
20260510080504 12 308 0.0 1.6 0.00 0.00 0.00 72 1017.6
20260510080004 12 0 0.0 0.0 0.00 0.00 0.00 72 1017.6
20260510075714 12 308 0.0 1.6 0.00 0.00 0.00 72 1017.6
20260510075004 12 308 0.0 1.6 0.00 0.00 0.00 74 1017.8
20260510074503 12 0 0.0 0.0 0.00 0.00 0.00 74 1017.8
20260510074003 11 309 0.0 0.0 0.00 0.00 0.00 76 1017.6
20260510073503 11 309 0.0 0.0 0.00 0.00 0.00 76 1017.6
20260510073003 11 0 0.0 0.0 0.00 0.00 0.00 77 1017.9
20260510072714 11 0 0.0 0.0 0.00 0.00 0.00 77 1017.8
20260510072004 11 0 0.0 0.0 0.00 0.00 0.00 78 1017.7
20260510071504 11 308 0.0 1.6 0.00 0.00 0.00 80 1017.7
20260510071004 10 308 0.0 1.6 0.00 0.00 0.00 80 1017.6
20260510070504 10 0 0.0 0.0 0.00 0.00 0.00 80 1017.5
20260510070004 10 0 0.0 0.0 0.00 0.00 0.00 80 1017.4
20260510065504 10 0 0.0 0.0 0.00 0.00 0.00 81 1017.3
20260510065004 10 309 0.0 0.0 0.00 0.00 0.00 82 1017.3
20260510064503 10 309 0.0 0.0 0.00 0.00 0.00 82 1017.3
20260510064004 9 0 0.0 0.0 0.00 0.00 0.00 82 1017.2
20260510063504 9 309 0.0 0.0 0.00 0.00 0.00 83 1017.1
20260510063004 9 309 0.0 0.0 0.00 0.00 0.00 83 1017.0
20260510062713 9 0 0.0 0.0 0.00 0.00 0.00 83 1017.0
20260510062004 8 308 0.0 1.6 0.00 0.00 0.00 84 1017.0
20260510061504 8 0 0.0 0.0 0.00 0.00 0.00 84 1017.1
20260510061003 8 0 0.0 0.0 0.00 0.00 0.00 84 1017.1
20260510060503 8 0 0.0 0.0 0.00 0.00 0.00 85 1017.1
20260510060004 8 0 0.0 0.0 0.00 0.00 0.00 85 1017.1
20260510055504 8 0 0.0 0.0 0.00 0.00 0.00 85 1017.1
20260510055003 8 309 0.0 1.6 0.00 0.00 0.00 85 1017.1
20260510054504 8 309 0.0 1.6 0.00 0.00 0.00 85 1017.0
20260510054004 8 0 0.0 0.0 0.00 0.00 0.00 85 1017.1
20260510053503 8 0 0.0 0.0 0.00 0.00 0.00 85 1017.2
20260510053004 7 0 0.0 0.0 0.00 0.00 0.00 85 1017.1
20260510052504 7 0 0.0 0.0 0.00 0.00 0.00 85 1017.2
20260510052214 7 0 0.0 0.0 0.00 0.00 0.00 85 1017.2
20260510051504 7 0 0.0 0.0 0.00 0.00 0.00 85 1017.2
20260510051004 7 0 0.0 0.0 0.00 0.00 0.00 85 1017.2
20260510050713 7 0 0.0 0.0 0.00 0.00 0.00 85 1017.3
20260510050004 7 0 0.0 0.0 0.00 0.00 0.00 85 1017.3
20260510045713 7 0 0.0 0.0 0.00 0.00 0.00 85 1017.2
20260510045004 7 0 0.0 0.0 0.00 0.00 0.00 84 1017.2
20260510044713 7 0 0.0 0.0 0.00 0.00 0.00 84 1017.3
20260510044003 7 0 0.0 0.0 0.00 0.00 0.00 84 1017.2
20260510043503 7 0 0.0 0.0 0.00 0.00 0.00 83 1017.3
20260510043003 7 0 0.0 0.0 0.00 0.00 0.00 83 1017.3
20260510042504 7 0 0.0 0.0 0.00 0.00 0.00 83 1017.2
20260510042004 7 0 0.0 0.0 0.00 0.00 0.00 83 1017.4
20260510041504 7 0 0.0 0.0 0.00 0.00 0.00 83 1017.3
20260510041004 7 0 0.0 0.0 0.00 0.00 0.00 82 1017.3
20260510040503 7 0 0.0 0.0 0.00 0.00 0.00 81 1017.3
20260510040004 8 0 0.0 0.0 0.00 0.00 0.00 80 1017.3
20260510035503 8 0 0.0 0.0 0.00 0.00 0.00 80 1017.3
20260510035003 8 0 0.0 0.0 0.00 0.00 0.00 79 1017.4
20260510034504 8 0 0.0 0.0 0.00 0.00 0.00 79 1017.3
20260510034213 8 0 0.0 0.0 0.00 0.00 0.00 78 1017.4
20260510033504 8 0 0.0 0.0 0.00 0.00 0.00 78 1017.5
20260510033004 8 0 0.0 0.0 0.00 0.00 0.00 77 1017.5
20260510032504 8 0 0.0 0.0 0.00 0.00 0.00 76 1017.4
20260510032003 8 308 0.0 1.6 0.00 0.00 0.00 76 1017.5
20260510031504 8 308 0.0 1.6 0.00 0.00 0.00 75 1017.4
20260510031003 8 0 0.0 0.0 0.00 0.00 0.00 75 1017.4
20260510030503 9 0 0.0 0.0 0.00 0.00 0.00 74 1017.4
20260510030004 9 0 0.0 0.0 0.00 0.00 0.00 74 1017.4
20260510025714 9 0 0.0 0.0 0.00 0.00 0.00 73 1017.5
20260510025004 9 0 0.0 0.0 0.00 0.00 0.00 73 1017.5
20260510024504 10 0 0.0 0.0 0.00 0.00 0.00 72 1017.4
20260510024003 10 0 0.0 0.0 0.00 0.00 0.00 72 1017.6
20260510023504 10 0 0.0 0.0 0.00 0.00 0.00 71 1017.5
20260510023003 10 0 0.0 0.0 0.00 0.00 0.00 71 1017.5
20260510022503 10 0 0.0 0.0 0.00 0.00 0.00 70 1017.4
20260510022003 10 0 0.0 0.0 0.00 0.00 0.00 70 1017.4
20260510021504 10 0 0.0 0.0 0.00 0.00 0.00 71 1017.5
20260510021004 10 0 0.0 0.0 0.00 0.00 0.00 71 1017.5
20260510020504 10 0 0.0 0.0 0.00 0.00 0.00 71 1017.6
20260510020215 10 0 0.0 0.0 0.00 0.00 0.00 71 1017.5
20260510015504 10 0 0.0 0.0 0.00 0.00 0.00 72 1017.4
20260510015003 10 0 0.0 0.0 0.00 0.00 0.00 73 1017.3
20260510014503 10 0 0.0 0.0 0.00 0.00 0.00 74 1017.3
20260510014213 10 0 0.0 0.0 0.00 0.00 0.00 74 1017.3
20260510013503 10 0 0.0 0.0 0.00 0.00 0.00 76 1017.3
20260510013214 10 0 0.0 0.0 0.00 0.00 0.00 76 1017.3
20260510012504 11 0 0.0 0.0 0.00 0.00 0.00 77 1017.4
20260510012004 11 0 0.0 0.0 0.00 0.00 0.00 78 1017.5
20260510011503 11 0 0.0 0.0 0.00 0.00 0.00 78 1017.5
20260510011003 11 0 0.0 0.0 0.00 0.00 0.00 78 1017.4
20260510010504 11 0 0.0 0.0 0.00 0.00 0.00 79 1017.4
20260510010004 11 0 0.0 0.0 0.00 0.00 0.00 79 1017.4
20260510005713 11 0 0.0 0.0 0.00 0.00 0.00 79 1017.4
20260510005004 11 0 0.0 0.0 0.00 0.00 0.00 79 1017.4
20260510004504 11 0 0.0 0.0 0.00 0.00 0.00 80 1017.5
20260510004214 11 0 0.0 0.0 0.00 0.00 0.00 80 1017.5
20260510003504 11 0 0.0 0.0 0.00 0.00 0.00 80 1017.4
20260510003004 11 0 0.0 0.0 0.00 0.00 0.00 80 1017.6
20260510002504 11 0 0.0 0.0 0.00 0.00 0.00 80 1017.5
20260510002004 11 0 0.0 0.0 0.00 0.00 0.00 81 1017.5
20260510001713 11 0 0.0 0.0 0.00 0.00 0.00 81 1017.5
20260510001003 11 0 0.0 0.0 0.00 0.00 0.00 81 1017.5
20260510000504 12 0 0.0 0.0 0.00 0.00 0.00 81 1017.5
20260510000004 12 0 0.0 0.0 0.00 0.00 0.00 81 1017.6
20260509235504 12 0 0.0 0.0 0.00 0.00 0.00 81 1017.6
20260509235004 12 0 0.0 0.0 0.00 0.00 0.00 81 1017.6
20260509234503 12 0 0.0 0.0 0.00 0.00 0.00 81 1017.5
20260509234004 12 0 0.0 0.0 0.00 0.00 0.00 81 1017.5
20260509233713 12 0 0.0 0.0 0.00 0.00 0.00 81 1017.5
20260509233214 12 0 0.0 0.0 0.00 0.00 0.00 82 1017.5
20260509232713 12 0 0.0 0.0 0.00 0.00 0.00 82 1017.4
20260509232004 12 0 0.0 0.0 0.00 0.00 0.00 82 1017.4
20260509231504 12 0 0.0 0.0 0.00 0.00 0.00 82 1017.4
20260509231004 12 0 0.0 0.0 0.00 0.00 0.00 82 1017.3
20260509230504 12 0 0.0 0.0 0.00 0.00 0.00 82 1017.3
20260509230004 12 0 0.0 0.0 0.00 0.00 0.00 82 1017.2
20260509225503 12 0 0.0 0.0 0.00 0.00 0.00 82 1017.1
20260509225003 12 0 0.0 0.0 0.00 0.00 0.00 82 1017.0
20260509224503 12 0 0.0 0.0 0.00 0.00 0.00 82 1017.0
20260509224005 12 0 0.0 0.0 0.00 0.00 0.00 82 1017.1
20260509223504 12 0 0.0 0.0 0.00 0.00 0.00 82 1017.1
20260509223004 12 0 0.0 0.0 0.00 0.00 0.00 82 1017.1
20260509222504 12 0 0.0 0.0 0.00 0.00 0.00 81 1017.1
20260509222003 12 0 0.0 0.0 0.00 0.00 0.00 81 1017.0
20260509221503 12 0 0.0 0.0 0.00 0.00 0.00 81 1017.0
20260509221003 13 0 0.0 0.0 0.00 0.00 0.00 80 1017.1
20260509220503 13 0 0.0 0.0 0.00 0.00 0.00 80 1017.0
20260509220003 13 0 0.0 0.0 0.00 0.00 0.00 80 1017.1
20260509215503 13 0 0.0 0.0 0.00 0.00 0.00 80 1017.1
20260509215003 13 0 0.0 0.0 0.00 0.00 0.00 79 1017.2
20260509214503 13 0 0.0 0.0 0.00 0.00 0.00 79 1017.2
20260509214003 13 0 0.0 0.0 0.00 0.00 0.00 78 1017.2
20260509213503 13 0 0.0 0.0 0.00 0.00 0.00 77 1017.1
20260509213003 13 0 0.0 0.0 0.00 0.00 0.00 76 1017.0
20260509212503 13 0 0.0 0.0 0.00 0.00 0.00 75 1017.0
20260509212213 13 0 0.0 0.0 0.00 0.00 0.00 75 1016.9
20260509211503 13 0 0.0 0.0 0.00 0.00 0.00 73 1016.9
20260509211003 13 0 0.0 0.0 0.00 0.00 0.00 72 1016.9
20260509210503 13 0 0.0 0.0 0.00 0.00 0.00 72 1016.8
20260509210213 13 0 0.0 0.0 0.00 0.00 0.00 71 1016.8
20260509205503 13 0 0.0 0.0 0.00 0.00 0.00 71 1016.8
20260509205003 13 0 0.0 0.0 0.00 0.00 0.00 70 1016.7
20260509204503 14 0 0.0 0.0 0.00 0.00 0.00 70 1016.6
20260509204213 14 0 0.0 0.0 0.00 0.00 0.00 69 1016.6
20260509203503 15 0 0.0 0.0 0.00 0.00 0.00 68 1016.5
20260509203003 15 0 0.0 0.0 0.00 0.00 0.00 67 1016.3
20260509202504 15 0 0.0 0.0 0.00 0.00 0.00 66 1016.5
20260509202004 15 0 0.0 0.0 0.00 0.00 0.00 66 1016.5
20260509201503 15 0 0.0 0.0 0.00 0.00 0.00 65 1016.5
20260509201215 16 0 0.0 0.0 0.00 0.00 0.00 64 1016.5
20260509200504 16 0 0.0 0.0 0.00 0.00 0.00 64 1016.3
20260509200004 16 0 0.0 0.0 0.00 0.00 0.00 62 1016.3
20260509195503 16 0 0.0 0.0 0.00 0.00 0.00 62 1016.3
20260509195003 16 0 0.0 0.0 0.00 0.00 0.00 62 1016.3
20260509194504 16 0 0.0 0.0 0.00 0.00 0.00 61 1016.3
20260509194004 17 0 0.0 0.0 0.00 0.00 0.00 60 1016.2
20260509193503 17 0 0.0 0.0 0.00 0.00 0.00 60 1016.1
20260509193004 17 0 0.0 0.0 0.00 0.00 0.00 59 1016.0
20260509192504 17 0 0.0 0.0 0.00 0.00 0.00 59 1016.1
20260509192003 17 0 0.0 0.0 0.00 0.00 0.00 59 1016.1
20260509191713 17 0 0.0 0.0 0.00 0.00 0.00 58 1016.1
20260509191003 17 0 0.0 0.0 0.00 0.00 0.00 57 1015.9
20260509190503 18 0 0.0 0.0 0.00 0.00 0.00 56 1015.8
20260509190004 18 0 0.0 0.0 0.00 0.00 0.00 56 1015.7
20260509185713 18 0 0.0 0.0 0.00 0.00 0.00 56 1015.7
20260509185004 18 0 0.0 0.0 0.00 0.00 0.00 56 1015.8
20260509184713 18 0 0.0 0.0 0.00 0.00 0.00 56 1015.7
20260509184004 18 0 0.0 0.0 0.00 0.00 0.00 56 1015.8
20260509183504 18 0 0.0 0.0 0.00 0.00 0.00 55 1015.7
20260509183003 18 0 0.0 0.0 0.00 0.00 0.00 55 1015.7
20260509182503 18 0 0.0 0.0 0.00 0.00 0.00 55 1015.6
20260509182003 18 0 0.0 0.0 0.00 0.00 0.00 56 1015.7
20260509181504 18 0 0.0 0.0 0.00 0.00 0.00 56 1015.7
20260509181004 18 0 0.0 0.0 0.00 0.00 0.00 55 1015.7
20260509180504 18 0 0.0 0.0 0.00 0.00 0.00 54 1015.7